41VA weather

Brown's Island Heliport
Richmond, Virginia, United States

Public forecast

Using degrees Fahrenheit for public forecast. Weather courtesy of forecast.io.

METAR (pilot weather report)

Closest report is Richmond International Airport, 6.2 nm (11.4 km) ESE. Retrieved 2019/01/17 15:54 UTC (58 minutes ago):

KRIC 171554Z VRB03KT 10SM OVC042 03/M03 A3037 RMK AO2 SLP292 T00331028

TAF (pilot weather forecast)

Closest forecast is Richmond International Airport, 6.2 nm (11.4 km) ESE. Retrieved 2019/01/17 12:22 UTC (5 hours ago):

TAF KRIC 171120Z 1712/1812 00000KT P6SM BKN045 FM171400 05004KT P6SM BKN080 FM172200 13004KT P6SM OVC060 FM180200 16004KT 6SM -RA OVC060 FM180500 17005KT 6SM -RA OVC030 FM180700 20005KT P6SM OVC025